Regional Weather Roundup
Issued by NWS

Home | Current Version | Previous Version | Graphics & Text | Print | Product List | Glossary On
Versions: 1 2 3 4 5 6 7 8 9 10 11 12 13 14 15 16 17 18 19 20 21 22 23 24 25 26 27 28 29 30 31 32 33 34 35 36 37 38 39 40 41 42 43 44 45 46 47 48 49 50
000
ASUS43 KLOT 211358
RWRIL

ILLINOIS REGIONAL WEATHER ROUNDUP
NATIONAL WEATHER SERVICE CHICAGO/ROMEOVILLE IL
900 AM CDT TUE OCT 21 2014

NOTE: "FAIR" INDICATES FEW OR NO CLOUDS BELOW 12,000 FEET WITH NO
SIGNIFICANT WEATHER AND/OR OBSTRUCTIONS TO VISIBILITY.

* THESE STATIONS ARE NOT UNDER NWS QUALITY CONTROL. THEY ALSO MAY NOT
  REPORT WEATHER SUCH AS PRECIPITATION OR FOG.

ILZ001-002-007-009-015-016-024-211500-
NORTHWEST ILLINOIS

CITY           SKY/WX    TMP DP  RH WIND       PRES   REMARKS
MOLINE         SUNNY     47  42  83 CALM      30.18R
$$

ILZ003-004-008-010-011-017-018-211500-
NORTH CENTRAL ILLINOIS

CITY           SKY/WX    TMP DP  RH WIND       PRES   REMARKS
ROCKFORD       NOT AVBL
$$

ILZ005-006-012>014-019>023-211500-
NORTHEAST ILLINOIS

CITY           SKY/WX    TMP DP  RH WIND       PRES   REMARKS
CHICAGO-OHARE  PTSUNNY   47  39  74 N13       30.14R
CHICAGO-MIDWAY NOT AVBL
AURORA         PTSUNNY   48  39  71 N8        30.15R
WAUKEGAN       NOT AVBL
DUPAGE AIRPORT SUNNY     49  39  68 N12       30.14R
WHEELING       CLOUDY    48  39  71 N8        30.15R
NORTHERLY ISL    N/A     50  41  71 N17         N/A
$$

LMZ740>746-211500-
SOUTHERN LAKE MICHIGAN

STATION/POSITION SKY/WX   TEMP    WIND        PRES    VSBY  WAVE
                          AIR SEA DIR/SP/G                  HT/PER
                          (F)     (DEG/KT/KT) (MB)    (MI)  (FT/S)
SOUTHERN BUOY              51 54  350/ 21/ 23 1018.7R         6/ 7
WAUKEGAN HARBOR            46     330/ 10/ 14   N/A
HARRISON CRIB              50     350/ 21/ 25   N/A
BURNHAM HARBOR             50     330/ 14/ 17   N/A
CALUMET HARBOR             51     330/ 12/ 17 1018.7R
MICHIGAN CITY              49     320/ 21/ 24   N/A
$$

ILZ025>027-034>036-040-047-049-050-058-095>099-211500-
WEST-CENTRAL ILLINOIS

CITY           SKY/WX    TMP DP  RH WIND       PRES   REMARKS
$$

ILZ028>032-037-038-041>044-048-051>054-059>061-211500-
CENTRAL ILLINOIS

CITY           SKY/WX    TMP DP  RH WIND       PRES   REMARKS
PEORIA         NOT AVBL
SPRINGFIELD    SUNNY     50  43  77 N6        30.15R
TAYLORVILLE    NOT AVBL
$$

ILZ033-039-045-046-055>057-062-063-211500-
EAST-CENTRAL ILLINOIS

CITY           SKY/WX    TMP DP  RH WIND       PRES   REMARKS
MATTOON        PTSUNNY   48  46  93 NW6       30.11R
$$

ILZ079-100>102-211500-
SOUTHWEST ILLINOIS

CITY           SKY/WX    TMP DP  RH WIND       PRES   REMARKS
$$

ILZ064>066-069>071-074>076-080>082-084>086-088>090-092>094-211500-
SOUTH-CENTRAL ILLINOIS

CITY           SKY/WX    TMP DP  RH WIND       PRES   REMARKS
CARBONDALE     SUNNY     53  47  79 NW5       30.10R
MARION         SUNNY     54  46  76 NW7       30.10R
$$

ILZ067-068-072-073-078-083-087-091-211500-
SOUTHEAST ILLINOIS

CITY           SKY/WX    TMP DP  RH WIND       PRES   REMARKS
$$

ABBREVIATIONS USED IN REMARKS
   TC - TEMPERATURE IN CELSIUS
  WCI - WIND CHILL INDEX
   HX - HEAT INDEX
  VSB - VISIBILITY
$$



USA.gov is the U.S. government's official web portal to all federal, state and local government web resources and services.